Private Wetterstation Wechselburg
Wetterdaten: Mittwoch, 21.10.2009
Datum Zeit Temp. +2m Bodentemp. Temp.+5cm Temp. Wind Windchill X Diff Temp. Feuchte +2m Feuchte +5cm Sonnenschein Luftdruck Regen Wind Richtung Richtung Sonnenschein UV Taupunkt Windchill Windben
21.10.2009 00:00 4,4 C 8,3 C 4,3 C 4,0 C 3,1 C 0,0 C 88 % 91 % 0 % 1014,8 hPa 0,0 l/m 0,0 km/h (0 Bft) NO 45 0 min 0,0 UV-I 2,6 C 3,1 C 0,0 km/h (0 Bft)
21.10.2009 00:06 4,4 C 8,3 C 4,3 C 4,0 C 3,3 C 0,0 C 88 % 91 % 0 % 1014,4 hPa 0,0 l/m 0,0 km/h (0 Bft) O-NO 67 0 min 0,0 UV-I 2,6 C 3,3 C 0,0 km/h (0 Bft)
21.10.2009 00:10 4,5 C 8,2 C 4,3 C 4,2 C 3,5 C 0,0 C 88 % 91 % 0 % 1014,4 hPa 0,0 l/m 0,0 km/h (0 Bft) NO 45 0 min 0,0 UV-I 2,7 C 3,5 C 0,0 km/h (0 Bft)
21.10.2009 00:15 4,6 C 8,2 C 4,3 C 4,3 C 3,6 C 0,0 C 88 % 91 % 0 % 1014,4 hPa 0,0 l/m 0,0 km/h (0 Bft) N-NO 22 0 min 0,0 UV-I 2,8 C 3,6 C 0,0 km/h (0 Bft)
21.10.2009 00:20 4,5 C 8,3 C 4,3 C 4,2 C 3,6 C 0,0 C 88 % 91 % 0 % 1014,4 hPa 0,0 l/m 0,0 km/h (0 Bft) W-NW 292 0 min 0,0 UV-I 2,7 C 3,6 C 0,0 km/h (0 Bft)
21.10.2009 00:25 4,5 C 8,3 C 4,3 C 4,2 C 3,5 C 0,0 C 88 % 91 % 0 % 1014,9 hPa 0,0 l/m 0,0 km/h (0 Bft) W-NW 292 0 min 0,0 UV-I 2,7 C 3,5 C 0,0 km/h (0 Bft)
21.10.2009 00:30 4,4 C 8,3 C 4,3 C 4,0 C 3,3 C 0,0 C 88 % 91 % 0 % 1014,9 hPa 0,0 l/m 0,0 km/h (0 Bft) SO 135 0 min 0,0 UV-I 2,6 C 3,3 C 0,0 km/h (0 Bft)
21.10.2009 00:35 4,4 C 8,3 C 4,3 C 4,1 C 3,4 C 0,0 C 88 % 91 % 0 % 1014,9 hPa 0,0 l/m 0,2 km/h (0 Bft) O-NO 67 0 min 0,0 UV-I 2,6 C 3,4 C 2,7 km/h (1 Bft)
21.10.2009 00:40 4,5 C 8,2 C 4,3 C 4,3 C 3,9 C 0,0 C 88 % 91 % 0 % 1014,9 hPa 0,0 l/m 1,1 km/h (1 Bft) O-NO 67 0 min 0,0 UV-I 2,7 C 3,9 C 5,0 km/h (1 Bft)
21.10.2009 00:45 4,7 C 8,1 C 4,4 C 4,6 C 4,3 C 0,0 C 88 % 91 % 0 % 1014,2 hPa 0,0 l/m 1,9 km/h (1 Bft) NO 45 0 min 0,0 UV-I 2,9 C 4,3 C 0,0 km/h (0 Bft)
21.10.2009 00:50 4,9 C 8,1 C 4,6 C 4,9 C 4,8 C 0,0 C 87 % 91 % 0 % 1014,2 hPa 0,0 l/m 2,4 km/h (1 Bft) O-SO 112 0 min 0,0 UV-I 2,9 C 4,8 C 6,6 km/h (2 Bft)
21.10.2009 00:55 4,8 C 8,0 C 4,6 C 5,0 C 5,0 C 0,2 C 87 % 90 % 0 % 1014,2 hPa 0,0 l/m 1,8 km/h (1 Bft) SO 135 0 min 0,0 UV-I 2,8 C 5,0 C 0,0 km/h (0 Bft)
21.10.2009 01:00 4,9 C 8,1 C 4,7 C 5,1 C 5,1 C 0,2 C 86 % 90 % 0 % 1014,2 hPa 0,0 l/m 0,5 km/h (0 Bft) NO 45 0 min 0,0 UV-I 2,8 C 5,1 C 0,0 km/h (0 Bft)
21.10.2009 01:06 4,9 C 8,1 C 4,8 C 5,1 C 5,1 C 0,2 C 86 % 90 % 0 % 1014,4 hPa 0,0 l/m 0,0 km/h (0 Bft) NO 45 0 min 0,0 UV-I 2,8 C 5,1 C 0,0 km/h (0 Bft)
21.10.2009 01:10 5,0 C 8,1 C 4,8 C 5,1 C 5,1 C 0,1 C 86 % 89 % 0 % 1014,4 hPa 0,0 l/m 0,0 km/h (0 Bft) NO 45 0 min 0,0 UV-I 2,9 C 5,1 C 0,0 km/h (0 Bft)
21.10.2009 01:15 5,1 C 8,1 C 4,8 C 5,1 C 5,1 C 0,0 C 86 % 89 % 0 % 1014,4 hPa 0,0 l/m 0,0 km/h (0 Bft) O-NO 67 0 min 0,0 UV-I 3,0 C 5,1 C 0,0 km/h (0 Bft)
21.10.2009 01:20 5,1 C 8,0 C 4,9 C 5,2 C 5,2 C 0,1 C 85 % 89 % 0 % 1014,4 hPa 0,0 l/m 0,2 km/h (0 Bft) W 270 0 min 0,0 UV-I 2,8 C 5,2 C 0,0 km/h (0 Bft)
21.10.2009 01:25 5,1 C 8,0 C 4,9 C 5,2 C 5,2 C 0,1 C 85 % 89 % 0 % 1014,2 hPa 0,0 l/m 0,2 km/h (0 Bft) N-NW 337 0 min 0,0 UV-I 2,8 C 5,2 C 0,0 km/h (0 Bft)
21.10.2009 01:30 5,1 C 8,0 C 5,0 C 5,2 C 5,2 C 0,1 C 85 % 89 % 0 % 1014,2 hPa 0,0 l/m 0,0 km/h (0 Bft) N-NO 22 0 min 0,0 UV-I 2,8 C 5,2 C 0,0 km/h (0 Bft)
21.10.2009 01:35 5,1 C 8,1 C 5,0 C 5,2 C 5,2 C 0,1 C 85 % 89 % 0 % 1014,2 hPa 0,0 l/m 0,0 km/h (0 Bft) N-NO 22 0 min 0,0 UV-I 2,8 C 5,2 C 0,0 km/h (0 Bft)
21.10.2009 01:40 5,1 C 8,1 C 5,1 C 5,2 C 5,2 C 0,1 C 85 % 89 % 0 % 1014,2 hPa 0,0 l/m 0,2 km/h (0 Bft) O-SO 112 0 min 0,0 UV-I 2,8 C 5,2 C 0,0 km/h (0 Bft)
21.10.2009 01:45 5,1 C 8,1 C 5,1 C 5,2 C 5,2 C 0,1 C 84 % 88 % 0 % 1014,2 hPa 0,0 l/m 0,8 km/h (0 Bft) S-SO 157 0 min 0,0 UV-I 2,6 C 5,2 C 0,0 km/h (0 Bft)
21.10.2009 01:50 5,2 C 8,0 C 5,1 C 5,3 C 5,3 C 0,1 C 84 % 88 % 0 % 1014,2 hPa 0,0 l/m 0,8 km/h (0 Bft) O-NO 67 0 min 0,0 UV-I 2,7 C 5,3 C 0,0 km/h (0 Bft)
21.10.2009 01:55 5,2 C 8,0 C 5,1 C 5,3 C 5,3 C 0,1 C 84 % 88 % 0 % 1014,2 hPa 0,0 l/m 0,0 km/h (0 Bft) O-NO 67 0 min 0,0 UV-I 2,7 C 5,3 C 0,0 km/h (0 Bft)
21.10.2009 02:00 5,2 C 8,0 C 5,1 C 5,2 C 5,2 C 0,0 C 84 % 88 % 0 % 1014,2 hPa 0,0 l/m 0,0 km/h (0 Bft) O-SO 112 0 min 0,0 UV-I 2,7 C 5,2 C 0,0 km/h (0 Bft)
21.10.2009 02:10 5,2 C 8,1 C 5,1 C 5,3 C 5,3 C 0,1 C 84 % 87 % 0 % 1014,3 hPa 0,0 l/m 0,5 km/h (0 Bft) O-NO 67 0 min 0,0 UV-I 2,7 C 5,3 C 0,0 km/h (0 Bft)
21.10.2009 02:15 5,2 C 8,1 C 5,2 C 5,3 C 5,3 C 0,1 C 84 % 87 % 0 % 1014,3 hPa 0,0 l/m 0,5 km/h (0 Bft) O-NO 67 0 min 0,0 UV-I 2,7 C 5,3 C 2,7 km/h (1 Bft)
21.10.2009 02:20 5,2 C 8,1 C 5,1 C 5,3 C 5,3 C 0,1 C 84 % 88 % 0 % 1014,3 hPa 0,0 l/m 0,3 km/h (0 Bft) SW 225 0 min 0,0 UV-I 2,7 C 5,3 C 0,0 km/h (0 Bft)
21.10.2009 02:25 5,2 C 8,0 C 5,2 C 5,3 C 5,3 C 0,1 C 84 % 87 % 0 % 1014,8 hPa 0,0 l/m 0,2 km/h (0 Bft) SW 225 0 min 0,0 UV-I 2,7 C 5,3 C 0,0 km/h (0 Bft)
21.10.2009 02:30 5,2 C 8,1 C 5,1 C 5,2 C 5,2 C 0,0 C 84 % 87 % 0 % 1014,8 hPa 0,0 l/m 0,0 km/h (0 Bft) SW 225 0 min 0,0 UV-I 2,7 C 5,2 C 0,0 km/h (0 Bft)
21.10.2009 02:35 5,1 C 8,1 C 5,1 C 5,2 C 5,2 C 0,1 C 85 % 88 % 0 % 1014,8 hPa 0,0 l/m 0,0 km/h (0 Bft) O-NO 67 0 min 0,0 UV-I 2,8 C 5,2 C 0,0 km/h (0 Bft)
21.10.2009 02:40 5,1 C 8,1 C 5,1 C 5,1 C 5,1 C 0,0 C 85 % 88 % 0 % 1014,8 hPa 0,0 l/m 0,3 km/h (0 Bft) NO 45 0 min 0,0 UV-I 2,8 C 5,1 C 2,1 km/h (1 Bft)
21.10.2009 02:45 5,1 C 8,1 C 5,1 C 5,2 C 5,2 C 0,1 C 85 % 88 % 0 % 1013,7 hPa 0,0 l/m 0,5 km/h (0 Bft) N-NO 22 0 min 0,0 UV-I 2,8 C 5,2 C 0,0 km/h (0 Bft)
21.10.2009 02:50 5,1 C 8,1 C 5,1 C 5,2 C 5,2 C 0,1 C 84 % 87 % 0 % 1013,7 hPa 0,0 l/m 0,3 km/h (0 Bft) O-NO 67 0 min 0,0 UV-I 2,6 C 5,2 C 0,0 km/h (0 Bft)
21.10.2009 02:55 5,1 C 8,0 C 5,1 C 5,2 C 5,2 C 0,1 C 84 % 87 % 0 % 1013,7 hPa 0,0 l/m 0,0 km/h (0 Bft) O-NO 67 0 min 0,0 UV-I 2,6 C 5,2 C 0,0 km/h (0 Bft)
21.10.2009 03:00 5,2 C 8,1 C 5,1 C 5,2 C 5,1 C 0,0 C 85 % 88 % 0 % 1013,7 hPa 0,0 l/m 0,0 km/h (0 Bft) W-SW 247 0 min 0,0 UV-I 2,9 C 5,1 C 0,0 km/h (0 Bft)
21.10.2009 03:10 5,1 C 8,1 C 5,1 C 5,1 C 5,0 C 0,0 C 85 % 88 % 0 % 1013,9 hPa 0,0 l/m 0,0 km/h (0 Bft) W-SW 247 0 min 0,0 UV-I 2,8 C 5,0 C 0,0 km/h (0 Bft)
21.10.2009 03:15 5,1 C 8,1 C 5,1 C 5,1 C 5,0 C 0,0 C 84 % 87 % 0 % 1013,9 hPa 0,0 l/m 0,5 km/h (0 Bft) O-NO 67 0 min 0,0 UV-I 2,6 C 5,0 C 2,7 km/h (1 Bft)
21.10.2009 03:20 5,1 C 8,1 C 5,1 C 5,1 C 5,1 C 0,0 C 84 % 87 % 0 % 1013,9 hPa 0,0 l/m 1,8 km/h (1 Bft) O 90 0 min 0,0 UV-I 2,6 C 5,1 C 2,7 km/h (1 Bft)
21.10.2009 03:25 5,1 C 8,1 C 5,1 C 5,2 C 5,2 C 0,1 C 84 % 87 % 0 % 1013,9 hPa 0,0 l/m 2,3 km/h (1 Bft) O-NO 67 0 min 0,0 UV-I 2,6 C 5,2 C 2,9 km/h (1 Bft)
21.10.2009 03:30 5,1 C 8,1 C 5,1 C 5,2 C 5,2 C 0,1 C 84 % 87 % 0 % 1013,9 hPa 0,0 l/m 1,8 km/h (1 Bft) O-SO 112 0 min 0,0 UV-I 2,6 C 5,2 C 0,0 km/h (0 Bft)
21.10.2009 03:35 5,1 C 8,0 C 5,1 C 5,1 C 5,0 C 0,0 C 84 % 87 % 0 % 1013,9 hPa 0,0 l/m 1,0 km/h (0 Bft) SO 135 0 min 0,0 UV-I 2,6 C 5,0 C 0,0 km/h (0 Bft)
21.10.2009 03:40 5,1 C 8,0 C 5,1 C 5,1 C 5,0 C 0,0 C 84 % 87 % 0 % 1013,9 hPa 0,0 l/m 0,0 km/h (0 Bft) O 90 0 min 0,0 UV-I 2,6 C 5,0 C 0,0 km/h (0 Bft)
21.10.2009 03:45 5,1 C 8,1 C 5,1 C 5,0 C 4,8 C 0,0 C 85 % 87 % 0 % 1013,8 hPa 0,0 l/m 0,0 km/h (0 Bft) S-SO 157 0 min 0,0 UV-I 2,8 C 4,8 C 0,0 km/h (0 Bft)
21.10.2009 03:50 5,1 C 8,1 C 5,1 C 5,0 C 4,8 C 0,0 C 84 % 87 % 0 % 1013,8 hPa 0,0 l/m 0,0 km/h (0 Bft) O-SO 112 0 min 0,0 UV-I 2,6 C 4,8 C 0,0 km/h (0 Bft)
21.10.2009 03:55 5,0 C 8,1 C 5,1 C 4,9 C 4,6 C 0,0 C 84 % 87 % 0 % 1013,8 hPa 0,0 l/m 0,0 km/h (0 Bft) O-SO 112 0 min 0,0 UV-I 2,5 C 4,6 C 0,0 km/h (0 Bft)
21.10.2009 04:00 5,0 C 8,1 C 4,8 C 4,7 C 4,0 C 0,0 C 84 % 87 % 0 % 1013,8 hPa 0,0 l/m 0,0 km/h (0 Bft) O-NO 67 0 min 0,0 UV-I 2,5 C 4,0 C 0,0 km/h (0 Bft)
21.10.2009 04:10 4,8 C 8,1 C 4,7 C 4,2 C 2,9 C 0,0 C 85 % 87 % 0 % 1014,0 hPa 0,0 l/m 0,0 km/h (0 Bft) O-NO 67 0 min 0,0 UV-I 2,5 C 2,9 C 0,0 km/h (0 Bft)
21.10.2009 04:15 4,7 C 8,1 C 4,4 C 4,0 C 2,6 C 0,0 C 84 % 87 % 0 % 1014,0 hPa 0,0 l/m 0,0 km/h (0 Bft) O-NO 67 0 min 0,0 UV-I 2,2 C 2,6 C 0,0 km/h (0 Bft)
21.10.2009 04:20 4,7 C 8,2 C 4,3 C 3,9 C 2,2 C 0,0 C 85 % 88 % 0 % 1014,0 hPa 0,0 l/m 0,0 km/h (0 Bft) O-NO 67 0 min 0,0 UV-I 2,4 C 2,2 C 0,0 km/h (0 Bft)
21.10.2009 04:25 4,6 C 8,1 C 4,3 C 3,8 C 2,2 C 0,0 C 85 % 88 % 0 % 1013,9 hPa 0,0 l/m 0,0 km/h (0 Bft) O-NO 67 0 min 0,0 UV-I 2,3 C 2,2 C 0,0 km/h (0 Bft)
21.10.2009 04:30 4,6 C 8,1 C 4,2 C 3,8 C 2,3 C 0,0 C 86 % 89 % 0 % 1013,9 hPa 0,0 l/m 0,0 km/h (0 Bft) O-NO 67 0 min 0,0 UV-I 2,5 C 2,3 C 0,0 km/h (0 Bft)
21.10.2009 04:35 4,4 C 8,2 C 4,3 C 3,8 C 2,5 C 0,0 C 86 % 88 % 0 % 1013,9 hPa 0,0 l/m 0,0 km/h (0 Bft) O-NO 67 0 min 0,0 UV-I 2,3 C 2,5 C 0,0 km/h (0 Bft)
21.10.2009 04:40 4,5 C 8,2 C 4,1 C 3,8 C 2,5 C 0,0 C 86 % 89 % 0 % 1013,9 hPa 0,0 l/m 0,0 km/h (0 Bft) O-NO 67 0 min 0,0 UV-I 2,4 C 2,5 C 0,0 km/h (0 Bft)
21.10.2009 04:45 4,4 C 8,2 C 4,1 C 3,7 C 2,4 C 0,0 C 86 % 89 % 0 % 1014,1 hPa 0,0 l/m 0,0 km/h (0 Bft) O-NO 67 0 min 0,0 UV-I 2,3 C 2,4 C 0,0 km/h (0 Bft)
21.10.2009 04:50 4,3 C 8,2 C 4,0 C 3,5 C 2,0 C 0,0 C 86 % 89 % 0 % 1014,1 hPa 0,0 l/m 0,0 km/h (0 Bft) O-NO 67 0 min 0,0 UV-I 2,2 C 2,0 C 0,0 km/h (0 Bft)
21.10.2009 04:55 4,3 C 8,2 C 3,9 C 3,5 C 1,8 C 0,0 C 86 % 89 % 0 % 1014,1 hPa 0,0 l/m 0,0 km/h (0 Bft) O-NO 67 0 min 0,0 UV-I 2,2 C 1,8 C 0,0 km/h (0 Bft)
21.10.2009 05:00 4,0 C 8,3 C 3,8 C 3,2 C 1,5 C 0,0 C 86 % 89 % 0 % 1014,1 hPa 0,0 l/m 0,0 km/h (0 Bft) O-NO 67 0 min 0,0 UV-I 1,9 C 1,5 C 0,0 km/h (0 Bft)
21.10.2009 05:06 4,1 C 8,3 C 3,6 C 3,2 C 1,3 C 0,0 C 86 % 89 % 0 % 1014,1 hPa 0,0 l/m 0,0 km/h (0 Bft) O-NO 67 0 min 0,0 UV-I 2,0 C 1,3 C 0,0 km/h (0 Bft)
21.10.2009 05:10 4,0 C 8,3 C 3,6 C 3,1 C 1,2 C 0,0 C 86 % 90 % 0 % 1014,1 hPa 0,0 l/m 0,0 km/h (0 Bft) O-NO 67 0 min 0,0 UV-I 1,9 C 1,2 C 0,0 km/h (0 Bft)
21.10.2009 05:15 3,9 C 8,3 C 3,5 C 2,9 C 1,0 C 0,0 C 87 % 90 % 0 % 1014,1 hPa 0,0 l/m 0,0 km/h (0 Bft) O-NO 67 0 min 0,0 UV-I 1,9 C 1,0 C 0,0 km/h (0 Bft)
21.10.2009 05:20 3,7 C 8,5 C 3,4 C 2,8 C 1,0 C 0,0 C 86 % 90 % 0 % 1014,1 hPa 0,0 l/m 0,0 km/h (0 Bft) O-NO 67 0 min 0,0 UV-I 1,6 C 1,0 C 0,0 km/h (0 Bft)
21.10.2009 05:25 3,7 C 8,4 C 3,3 C 2,8 C 0,9 C 0,0 C 87 % 89 % 0 % 1013,9 hPa 0,0 l/m 0,0 km/h (0 Bft) O-NO 67 0 min 0,0 UV-I 1,7 C 0,9 C 0,0 km/h (0 Bft)
21.10.2009 05:30 3,5 C 8,5 C 3,0 C 2,7 C 1,1 C 0,0 C 87 % 89 % 0 % 1013,9 hPa 0,0 l/m 1,1 km/h (1 Bft) NO 45 0 min 0,0 UV-I 1,5 C 1,1 C 2,7 km/h (1 Bft)
21.10.2009 05:35 3,5 C 8,5 C 2,9 C 2,8 C 1,4 C 0,0 C 87 % 89 % 0 % 1013,9 hPa 0,0 l/m 2,1 km/h (1 Bft) O-NO 67 0 min 0,0 UV-I 1,5 C 1,4 C 3,1 km/h (1 Bft)
21.10.2009 05:40 3,5 C 8,4 C 2,8 C 2,9 C 1,6 C 0,0 C 87 % 90 % 0 % 1013,9 hPa 0,0 l/m 2,3 km/h (1 Bft) W 270 0 min 0,0 UV-I 1,5 C 1,6 C 1,9 km/h (1 Bft)
21.10.2009 05:45 3,6 C 8,4 C 2,8 C 3,0 C 1,7 C 0,0 C 87 % 90 % 0 % 1013,5 hPa 0,0 l/m 1,8 km/h (1 Bft) O-NO 67 0 min 0,0 UV-I 1,6 C 1,7 C 1,6 km/h (1 Bft)
21.10.2009 05:50 3,5 C 8,4 C 2,9 C 2,9 C 1,7 C 0,0 C 87 % 90 % 0 % 1013,5 hPa 0,0 l/m 0,6 km/h (0 Bft) NO 45 0 min 0,0 UV-I 1,5 C 1,7 C 0,0 km/h (0 Bft)
21.10.2009 05:55 3,5 C 8,4 C 2,8 C 2,9 C 1,6 C 0,0 C 87 % 90 % 0 % 1013,5 hPa 0,0 l/m 0,3 km/h (0 Bft) N-NO 22 0 min 0,0 UV-I 1,5 C 1,6 C 0,0 km/h (0 Bft)
21.10.2009 06:00 3,5 C 8,4 C 2,9 C 2,8 C 1,3 C 0,0 C 87 % 90 % 0 % 1013,5 hPa 0,0 l/m 0,0 km/h (0 Bft) N 360 0 min 0,0 UV-I 1,5 C 1,3 C 0,0 km/h (0 Bft)
21.10.2009 06:06 3,5 C 8,3 C 2,7 C 2,7 C 1,1 C 0,0 C 87 % 90 % 0 % 1013,9 hPa 0,0 l/m 0,2 km/h (0 Bft) O-NO 67 0 min 0,0 UV-I 1,5 C 1,1 C 3,1 km/h (1 Bft)
21.10.2009 06:07 3,4 C 8,4 C 2,7 C 2,7 C 1,3 C 0,0 C 87 % 91 % 0 % 1013,9 hPa 0,0 l/m 0,8 km/h (0 Bft) N-NO 22 0 min 0,0 UV-I 1,4 C 1,3 C 0,0 km/h (0 Bft)
21.10.2009 06:10 3,4 C 8,4 C 2,7 C 2,7 C 1,3 C 0,0 C 87 % 91 % 0 % 1013,9 hPa 0,0 l/m 0,8 km/h (0 Bft) N-NO 22 0 min 0,0 UV-I 1,4 C 1,3 C 0,0 km/h (0 Bft)
21.10.2009 06:15 3,5 C 8,4 C 2,5 C 2,7 C 1,1 C 0,0 C 87 % 91 % 0 % 1013,9 hPa 0,0 l/m 1,0 km/h (0 Bft) S-SW 202 0 min 0,0 UV-I 1,5 C 1,1 C 0,0 km/h (0 Bft)
21.10.2009 06:20 3,3 C 8,4 C 2,4 C 2,4 C 0,7 C 0,0 C 87 % 91 % 0 % 1013,9 hPa 0,0 l/m 0,0 km/h (0 Bft) S 180 0 min 0,0 UV-I 1,3 C 0,7 C 0,0 km/h (0 Bft)
21.10.2009 06:25 3,2 C 8,4 C 2,5 C 2,3 C 0,4 C 0,0 C 87 % 91 % 0 % 1012,7 hPa 0,0 l/m 0,2 km/h (0 Bft) SW 225 0 min 0,0 UV-I 1,2 C 0,4 C 1,8 km/h (1 Bft)
21.10.2009 06:30 3,1 C 8,4 C 2,3 C 2,1 C 0,2 C 0,0 C 86 % 91 % 0 % 1012,7 hPa 0,0 l/m 0,2 km/h (0 Bft) S 180 0 min 0,0 UV-I 1,0 C 0,2 C 0,0 km/h (0 Bft)
21.10.2009 06:35 2,9 C 8,5 C 2,3 C 1,9 C 0,0 C 0,0 C 87 % 91 % 0 % 1012,7 hPa 0,0 l/m 0,2 km/h (0 Bft) O-NO 67 0 min 0,0 UV-I 1,0 C 0,0 C 0,0 km/h (0 Bft)
21.10.2009 06:40 2,9 C 8,4 C 2,3 C 1,8 C -0,3 C 0,0 C 87 % 91 % 0 % 1012,7 hPa 0,0 l/m 0,0 km/h (0 Bft) O-NO 67 0 min 0,0 UV-I 1,0 C -0,3 C 0,0 km/h (0 Bft)
21.10.2009 06:45 2,9 C 8,4 C 2,3 C 1,8 C -0,4 C 0,0 C 87 % 91 % 0 % 1012,9 hPa 0,0 l/m 0,0 km/h (0 Bft) O-NO 67 0 min 0,0 UV-I 1,0 C -0,4 C 0,0 km/h (0 Bft)
21.10.2009 06:50 2,8 C 8,4 C 2,2 C 1,7 C -0,4 C 0,0 C 87 % 91 % 0 % 1012,9 hPa 0,0 l/m 0,0 km/h (0 Bft) O-NO 67 0 min 0,0 UV-I 0,9 C -0,4 C 0,0 km/h (0 Bft)
21.10.2009 06:55 2,7 C 8,4 C 2,0 C 1,7 C -0,4 C 0,0 C 87 % 91 % 0 % 1012,9 hPa 0,0 l/m 0,0 km/h (0 Bft) O-NO 67 0 min 0,0 UV-I 0,8 C -0,4 C 0,0 km/h (0 Bft)
21.10.2009 07:00 2,9 C 8,4 C 2,0 C 1,8 C -0,4 C 0,0 C 87 % 91 % 0 % 1012,9 hPa 0,0 l/m 0,0 km/h (0 Bft) W-SW 247 0 min 0,0 UV-I 1,0 C -0,4 C 0,0 km/h (0 Bft)
21.10.2009 07:10 2,7 C 8,4 C 1,9 C 1,6 C -0,6 C 0,0 C 87 % 91 % 0 % 1013,5 hPa 0,0 l/m 0,0 km/h (0 Bft) SW 225 0 min 0,0 UV-I 0,8 C -0,6 C 0,0 km/h (0 Bft)
21.10.2009 07:15 2,7 C 8,4 C 1,9 C 1,5 C -0,8 C 0,0 C 87 % 91 % 0 % 1013,5 hPa 0,0 l/m 0,0 km/h (0 Bft) SW 225 0 min 0,0 UV-I 0,8 C -0,8 C 0,0 km/h (0 Bft)
21.10.2009 07:20 2,5 C 8,4 C 1,9 C 1,4 C -0,8 C 0,0 C 87 % 91 % 0 % 1013,5 hPa 0,0 l/m 0,0 km/h (0 Bft) SW 225 0 min 0,0 UV-I 0,6 C -0,8 C 0,0 km/h (0 Bft)
21.10.2009 07:25 2,5 C 8,4 C 1,8 C 1,4 C -0,9 C 0,0 C 88 % 91 % 0 % 1013,4 hPa 0,0 l/m 0,3 km/h (0 Bft) SW 225 0 min 0,0 UV-I 0,7 C -0,9 C 1,9 km/h (1 Bft)
21.10.2009 07:30 2,5 C 8,4 C 1,6 C 1,3 C -1,0 C 0,0 C 87 % 91 % 0 % 1013,4 hPa 0,0 l/m 0,3 km/h (0 Bft) W-SW 247 0 min 0,0 UV-I 0,6 C -1,0 C 0,0 km/h (0 Bft)
21.10.2009 07:35 2,4 C 8,4 C 1,6 C 1,2 C -1,1 C 0,0 C 87 % 91 % 0 % 1013,4 hPa 0,0 l/m 0,2 km/h (0 Bft) W-SW 247 0 min 0,0 UV-I 0,5 C -1,1 C 0,0 km/h (0 Bft)
21.10.2009 07:40 2,2 C 8,4 C 1,5 C 1,1 C -1,2 C 0,0 C 86 % 91 % 0 % 1013,4 hPa 0,0 l/m 0,0 km/h (0 Bft) W-SW 247 0 min 0,0 UV-I 0,1 C -1,2 C 0,0 km/h (0 Bft)
21.10.2009 07:45 2,1 C 8,4 C 1,5 C 1,0 C -1,2 C 0,0 C 87 % 91 % 0 % 1013,1 hPa 0,0 l/m 0,0 km/h (0 Bft) W-SW 247 0 min 0,0 UV-I 0,2 C -1,2 C 0,0 km/h (0 Bft)
21.10.2009 07:50 2,3 C 8,4 C 1,5 C 1,1 C -1,3 C 0,0 C 88 % 92 % 0 % 1013,1 hPa 0,0 l/m 0,0 km/h (0 Bft) W-SW 247 0 min 0,0 UV-I 0,5 C -1,3 C 0,0 km/h (0 Bft)
21.10.2009 07:55 2,3 C 8,4 C 1,5 C 1,1 C -1,3 C 0,0 C 88 % 92 % 0 % 1013,1 hPa 0,0 l/m 0,0 km/h (0 Bft) W-SW 247 0 min 0,0 UV-I 0,5 C -1,3 C 0,0 km/h (0 Bft)
21.10.2009 08:00 2,1 C 8,4 C 1,4 C 1,0 C -1,3 C 0,0 C 87 % 92 % 0 % 1013,1 hPa 0,0 l/m 0,0 km/h (0 Bft) W-SW 247 0 min 0,0 UV-I 0,2 C -1,3 C 0,0 km/h (0 Bft)
21.10.2009 08:10 2,0 C 8,3 C 1,5 C 0,9 C -1,3 C 0,0 C 88 % 92 % 0 % 1013,8 hPa 0,0 l/m 0,0 km/h (0 Bft) W-SW 247 0 min 0,0 UV-I 0,2 C -1,3 C 0,0 km/h (0 Bft)
21.10.2009 08:15 2,1 C 8,3 C 1,3 C 1,0 C -1,3 C 0,0 C 88 % 92 % 0 % 1013,8 hPa 0,0 l/m 0,0 km/h (0 Bft) W-SW 247 0 min 0,0 UV-I 0,3 C -1,3 C 0,0 km/h (0 Bft)
21.10.2009 08:20 2,1 C 8,3 C 1,3 C 1,0 C -1,2 C 0,0 C 87 % 92 % 0 % 1013,8 hPa 0,0 l/m 0,0 km/h (0 Bft) W-SW 247 0 min 0,0 UV-I 0,2 C -1,2 C 0,0 km/h (0 Bft)
21.10.2009 08:25 2,0 C 8,3 C 1,2 C 0,9 C -1,2 C 0,0 C 87 % 91 % 0 % 1013,4 hPa 0,0 l/m 0,0 km/h (0 Bft) N 360 0 min 0,0 UV-I 0,1 C -1,2 C 0,0 km/h (0 Bft)
21.10.2009 08:30 1,9 C 8,3 C 1,2 C 0,9 C -1,1 C 0,0 C 87 % 92 % 0 % 1013,4 hPa 0,0 l/m 0,0 km/h (0 Bft) NO 45 0 min 0,0 UV-I -0,0 C -1,1 C 0,0 km/h (0 Bft)
21.10.2009 08:35 2,0 C 8,3 C 1,3 C 1,0 C -0,9 C 0,0 C 88 % 92 % 0 % 1013,4 hPa 0,0 l/m 0,0 km/h (0 Bft) NO 45 0 min 0,0 UV-I 0,2 C -0,9 C 0,0 km/h (0 Bft)
21.10.2009 08:40 2,0 C 8,3 C 1,3 C 1,1 C -0,8 C 0,0 C 88 % 92 % 0 % 1013,4 hPa 0,0 l/m 0,0 km/h (0 Bft) SW 225 0 min 0,0 UV-I 0,2 C -0,8 C 0,0 km/h (0 Bft)
21.10.2009 08:45 2,0 C 8,3 C 1,2 C 1,1 C -0,7 C 0,0 C 88 % 92 % 0 % 1013,1 hPa 0,0 l/m 0,0 km/h (0 Bft) W-SW 247 0 min 0,0 UV-I 0,2 C -0,7 C 0,0 km/h (0 Bft)
21.10.2009 08:50 2,1 C 8,3 C 1,4 C 1,2 C -0,6 C 0,0 C 88 % 92 % 0 % 1013,1 hPa 0,0 l/m 0,0 km/h (0 Bft) SW 225 0 min 0,0 UV-I 0,3 C -0,6 C 0,0 km/h (0 Bft)
21.10.2009 08:55 2,2 C 8,3 C 1,5 C 1,3 C -0,5 C 0,0 C 88 % 92 % 0 % 1013,1 hPa 0,0 l/m 0,2 km/h (0 Bft) SW 225 0 min 0,0 UV-I 0,4 C -0,5 C 0,0 km/h (0 Bft)
21.10.2009 09:00 2,1 C 8,3 C 1,4 C 1,3 C -0,4 C 0,0 C 88 % 92 % 0 % 1013,1 hPa 0,0 l/m 0,2 km/h (0 Bft) SW 225 0 min 0,0 UV-I 0,3 C -0,4 C 0,0 km/h (0 Bft)
21.10.2009 09:10 2,3 C 8,2 C 1,5 C 1,5 C -0,1 C 0,0 C 88 % 92 % 0 % 1012,9 hPa 0,0 l/m 0,0 km/h (0 Bft) SO 135 0 min 0,0 UV-I 0,5 C -0,1 C 0,0 km/h (0 Bft)
21.10.2009 09:15 2,3 C 8,2 C 1,5 C 1,7 C 0,4 C 0,0 C 89 % 92 % 0 % 1012,9 hPa 0,0 l/m 0,3 km/h (0 Bft) N-NO 22 0 min 0,0 UV-I 0,7 C 0,4 C 0,0 km/h (0 Bft)
21.10.2009 09:20 2,4 C 8,2 C 1,5 C 2,0 C 1,2 C 0,0 C 89 % 93 % 0 % 1012,9 hPa 0,0 l/m 1,1 km/h (1 Bft) W-SW 247 0 min 0,0 UV-I 0,8 C 1,2 C 0,0 km/h (0 Bft)
21.10.2009 09:25 2,5 C 8,2 C 1,7 C 2,1 C 1,2 C 0,0 C 89 % 93 % 0 % 1013,6 hPa 0,0 l/m 1,1 km/h (1 Bft) NO 45 0 min 0,0 UV-I 0,9 C 1,2 C 4,5 km/h (1 Bft)
21.10.2009 09:30 2,6 C 8,2 C 1,7 C 2,3 C 1,7 C 0,0 C 89 % 93 % 0 % 1013,6 hPa 0,0 l/m 0,8 km/h (0 Bft) S 180 0 min 0,0 UV-I 1,0 C 1,7 C 2,3 km/h (1 Bft)
21.10.2009 09:35 2,7 C 8,2 C 1,7 C 2,3 C 1,6 C 0,0 C 89 % 93 % 0 % 1013,6 hPa 0,0 l/m 1,3 km/h (1 Bft) W-SW 247 0 min 0,0 UV-I 1,1 C 1,6 C 1,8 km/h (1 Bft)
21.10.2009 09:40 2,8 C 8,2 C 2,0 C 2,4 C 1,6 C 0,0 C 89 % 93 % 0 % 1013,6 hPa 0,0 l/m 0,8 km/h (0 Bft) N-NO 22 0 min 0,0 UV-I 1,2 C 1,6 C 0,0 km/h (0 Bft)
21.10.2009 09:45 2,9 C 8,2 C 2,2 C 2,6 C 1,9 C 0,0 C 89 % 94 % 0 % 1013,6 hPa 0,0 l/m 0,3 km/h (0 Bft) W-SW 247 0 min 0,0 UV-I 1,3 C 1,9 C 1,9 km/h (1 Bft)
21.10.2009 09:50 3,1 C 8,0 C 2,3 C 2,8 C 2,1 C 0,0 C 89 % 94 % 0 % 1013,6 hPa 0,0 l/m 0,3 km/h (0 Bft) S-SW 202 0 min 0,0 UV-I 1,5 C 2,1 C 1,6 km/h (1 Bft)
21.10.2009 09:55 3,1 C 8,0 C 2,4 C 2,8 C 2,3 C 0,0 C 89 % 94 % 0 % 1013,6 hPa 0,0 l/m 0,3 km/h (0 Bft) SW 225 0 min 0,0 UV-I 1,5 C 2,3 C 0,0 km/h (0 Bft)
21.10.2009 10:00 3,3 C 7,9 C 2,7 C 3,1 C 2,6 C 0,0 C 89 % 94 % 0 % 1013,6 hPa 0,0 l/m 0,2 km/h (0 Bft) SO 135 0 min 0,1 UV-I 1,7 C 2,6 C 0,0 km/h (0 Bft)
21.10.2009 10:10 3,7 C 7,8 C 3,1 C 3,7 C 3,6 C 0,0 C 90 % 94 % 0 % 1014,1 hPa 0,0 l/m 2,9 km/h (1 Bft) N-NO 22 0 min 0,1 UV-I 2,2 C 3,6 C 4,0 km/h (1 Bft)
21.10.2009 10:15 3,9 C 7,8 C 3,5 C 3,8 C 3,7 C 0,0 C 89 % 94 % 0 % 1014,1 hPa 0,0 l/m 3,4 km/h (1 Bft) NO 45 0 min 0,1 UV-I 2,3 C 3,7 C 6,4 km/h (2 Bft)
21.10.2009 10:20 4,4 C 7,8 C 4,0 C 4,3 C 4,2 C 0,0 C 88 % 93 % 0 % 1014,1 hPa 0,0 l/m 3,7 km/h (1 Bft) O-NO 67 0 min 0,1 UV-I 2,6 C 4,2 C 8,2 km/h (2 Bft)
21.10.2009 10:25 4,5 C 7,8 C 4,3 C 4,3 C 3,9 C 0,0 C 88 % 92 % 0 % 1013,8 hPa 0,0 l/m 4,7 km/h (1 Bft) NO 45 0 min 0,1 UV-I 2,7 C 3,0 C 8,5 km/h (2 Bft)
21.10.2009 10:30 4,8 C 7,8 C 4,5 C 4,6 C 4,3 C 0,0 C 86 % 90 % 0 % 1013,8 hPa 0,0 l/m 6,0 km/h (2 Bft) O-NO 67 0 min 0,1 UV-I 2,7 C 2,9 C 9,0 km/h (2 Bft)
21.10.2009 10:35 4,9 C 7,7 C 4,7 C 4,8 C 4,5 C 0,0 C 86 % 89 % 0 % 1013,8 hPa 0,0 l/m 6,1 km/h (2 Bft) O-NO 67 0 min 0,1 UV-I 2,8 C 3,1 C 6,9 km/h (2 Bft)
21.10.2009 10:40 5,0 C 7,7 C 4,9 C 4,8 C 4,4 C 0,0 C 84 % 88 % 0 % 1013,8 hPa 0,0 l/m 6,4 km/h (2 Bft) NO 45 0 min 0,2 UV-I 2,5 C 2,9 C 12,9 km/h (3 Bft)
21.10.2009 10:45 5,2 C 7,7 C 5,1 C 5,0 C 4,5 C 0,0 C 84 % 87 % 0 % 1013,7 hPa 0,0 l/m 6,3 km/h (2 Bft) NO 45 0 min 0,2 UV-I 2,7 C 3,0 C 3,5 km/h (1 Bft)
21.10.2009 10:50 5,4 C 7,8 C 5,2 C 5,4 C 5,3 C 0,0 C 84 % 87 % 0 % 1013,7 hPa 0,0 l/m 4,8 km/h (1 Bft) O-NO 67 0 min 0,2 UV-I 2,9 C 4,5 C 4,2 km/h (1 Bft)
21.10.2009 10:55 5,4 C 7,7 C 5,5 C 5,9 C 5,9 C 0,5 C 84 % 87 % 13 % 1013,7 hPa 0,0 l/m 4,0 km/h (1 Bft) O-NO 67 0 min 0,2 UV-I 2,9 C 5,9 C 6,3 km/h (2 Bft)
21.10.2009 11:00 5,6 C 7,7 C 5,5 C 5,6 C 5,5 C 0,0 C 83 % 85 % 0 % 1013,7 hPa 0,0 l/m 5,5 km/h (1 Bft) O-NO 67 0 min 0,2 UV-I 2,9 C 4,5 C 4,2 km/h (1 Bft)
21.10.2009 11:10 5,9 C 7,7 C 5,8 C 5,8 C 5,5 C 0,0 C 82 % 84 % 0 % 1013,4 hPa 0,0 l/m 6,1 km/h (2 Bft) O-NO 67 0 min 0,3 UV-I 3,1 C 4,3 C 16,3 km/h (3 Bft)
21.10.2009 11:15 5,8 C 7,7 C 5,8 C 5,6 C 5,2 C 0,0 C 81 % 84 % 0 % 1013,4 hPa 0,0 l/m 7,2 km/h (2 Bft) O-NO 67 0 min 0,3 UV-I 2,8 C 3,6 C 10,6 km/h (2 Bft)
21.10.2009 11:20 6,0 C 7,7 C 5,9 C 5,7 C 5,2 C 0,0 C 82 % 84 % 0 % 1013,4 hPa 0,0 l/m 7,9 km/h (2 Bft) O-NO 67 0 min 0,3 UV-I 3,2 C 3,4 C 8,5 km/h (2 Bft)
21.10.2009 11:25 6,1 C 7,6 C 6,0 C 5,8 C 5,3 C 0,0 C 82 % 83 % 0 % 1013,5 hPa 0,0 l/m 7,4 km/h (2 Bft) NW 315 0 min 0,3 UV-I 3,3 C 3,6 C 5,0 km/h (1 Bft)
21.10.2009 11:30 6,1 C 7,6 C 6,2 C 5,9 C 5,6 C 0,0 C 81 % 83 % 0 % 1013,5 hPa 0,0 l/m 6,4 km/h (2 Bft) NO 45 0 min 0,3 UV-I 3,1 C 4,3 C 9,0 km/h (2 Bft)
21.10.2009 11:35 6,1 C 7,6 C 6,2 C 5,9 C 5,4 C 0,0 C 80 % 82 % 0 % 1013,5 hPa 0,0 l/m 7,6 km/h (2 Bft) NO 45 0 min 0,3 UV-I 2,9 C 3,7 C 8,5 km/h (2 Bft)
21.10.2009 11:40 6,2 C 7,6 C 6,3 C 6,0 C 5,6 C 0,0 C 81 % 83 % 0 % 1013,5 hPa 0,0 l/m 7,4 km/h (2 Bft) NO 45 0 min 0,3 UV-I 3,2 C 4,0 C 17,7 km/h (3 Bft)
21.10.2009 11:45 6,4 C 7,6 C 6,3 C 6,2 C 5,8 C 0,0 C 81 % 83 % 0 % 1013,2 hPa 0,0 l/m 6,8 km/h (2 Bft) O-NO 67 0 min 0,3 UV-I 3,4 C 4,4 C 8,5 km/h (2 Bft)
21.10.2009 11:50 6,5 C 7,6 C 6,4 C 6,4 C 6,1 C 0,0 C 80 % 82 % 0 % 1013,2 hPa 0,0 l/m 6,8 km/h (2 Bft) O-NO 67 0 min 0,4 UV-I 3,3 C 4,7 C 5,5 km/h (1 Bft)
21.10.2009 11:55 6,5 C 7,6 C 6,4 C 6,5 C 6,4 C 0,0 C 81 % 83 % 0 % 1013,2 hPa 0,0 l/m 5,8 km/h (2 Bft) NO 45 0 min 0,4 UV-I 3,5 C 5,4 C 4,8 km/h (1 Bft)
21.10.2009 12:00 6,7 C 7,6 C 6,5 C 6,9 C 6,9 C 0,2 C 80 % 82 % 5 % 1013,2 hPa 0,0 l/m 4,8 km/h (1 Bft) O-NO 67 0 min 0,4 UV-I 3,5 C 6,3 C 7,7 km/h (2 Bft)
21.10.2009 12:10 6,8 C 7,7 C 6,6 C 7,7 C 7,7 C 0,9 C 79 % 82 % 24 % 1013,2 hPa 0,0 l/m 5,6 km/h (1 Bft) O-NO 67 0 min 0,4 UV-I 3,4 C 6,9 C 9,5 km/h (2 Bft)
21.10.2009 12:15 6,9 C 7,6 C 6,8 C 8,4 C 8,4 C 1,5 C 79 % 82 % 39 % 1013,2 hPa 0,0 l/m 5,8 km/h (2 Bft) NO 45 0 min 0,4 UV-I 3,5 C 7,7 C 6,9 km/h (2 Bft)
21.10.2009 12:20 6,8 C 7,7 C 6,7 C 8,6 C 8,6 C 1,8 C 79 % 82 % 47 % 1013,2 hPa 0,0 l/m 4,8 km/h (1 Bft) O-NO 67 0 min 0,4 UV-I 3,4 C 8,2 C 6,8 km/h (2 Bft)
21.10.2009 12:25 6,8 C 7,7 C 6,8 C 8,4 C 8,4 C 1,6 C 79 % 81 % 42 % 1013,8 hPa 0,0 l/m 4,7 km/h (1 Bft) NO 45 0 min 0,4 UV-I 3,4 C 8,0 C 6,9 km/h (2 Bft)
21.10.2009 12:30 6,9 C 7,7 C 6,8 C 9,2 C 9,2 C 2,3 C 79 % 82 % 61 % 1013,8 hPa 0,0 l/m 4,3 km/h (1 Bft) NO 45 0 min 0,4 UV-I 3,5 C 9,2 C 4,7 km/h (1 Bft)
21.10.2009 12:35 7,1 C 7,7 C 6,9 C 9,2 C 9,2 C 2,1 C 79 % 81 % 55 % 1013,8 hPa 0,0 l/m 3,5 km/h (1 Bft) NO 45 0 min 0,4 UV-I 3,7 C 9,2 C 5,5 km/h (1 Bft)
21.10.2009 12:40 7,1 C 7,7 C 6,9 C 9,7 C 9,7 C 2,6 C 78 % 80 % 68 % 1013,8 hPa 0,0 l/m 2,7 km/h (1 Bft) O-NO 67 0 min 0,4 UV-I 3,5 C 9,7 C 4,8 km/h (1 Bft)
21.10.2009 12:45 7,1 C 7,7 C 7,1 C 9,6 C 9,6 C 2,5 C 79 % 81 % 66 % 1013,4 hPa 0,0 l/m 2,9 km/h (1 Bft) N-NO 22 0 min 0,4 UV-I 3,7 C 9,6 C 5,8 km/h (2 Bft)
21.10.2009 12:50 7,3 C 7,7 C 7,2 C 9,7 C 9,7 C 2,4 C 78 % 81 % 63 % 1013,4 hPa 0,0 l/m 3,9 km/h (1 Bft) O-NO 67 0 min 0,5 UV-I 3,7 C 9,7 C 4,0 km/h (1 Bft)
21.10.2009 12:55 7,5 C 7,7 C 7,3 C 10,8 C 10,8 C 3,3 C 76 % 80 % 87 % 1013,4 hPa 0,0 l/m 4,3 km/h (1 Bft) O-NO 67 5 min 0,5 UV-I 3,5 C 10,8 C 5,0 km/h (1 Bft)
21.10.2009 13:00 7,4 C 7,7 C 7,3 C 11,5 C 11,5 C 4,1 C 77 % 79 % 100 % 1013,4 hPa 0,0 l/m 3,4 km/h (1 Bft) NO 45 5 min 0,5 UV-I 3,6 C 11,5 C 5,5 km/h (1 Bft)
21.10.2009 13:10 7,5 C 7,7 C 7,3 C 11,0 C 11,0 C 3,5 C 78 % 80 % 92 % 1013,3 hPa 0,0 l/m 2,9 km/h (1 Bft) NO 45 10 min 0,5 UV-I 3,9 C 11,0 C 3,2 km/h (1 Bft)
21.10.2009 13:15 7,5 C 7,7 C 7,5 C 10,9 C 10,9 C 3,4 C 77 % 79 % 89 % 1013,3 hPa 0,0 l/m 3,5 km/h (1 Bft) O-NO 67 5 min 0,5 UV-I 3,7 C 10,9 C 8,4 km/h (2 Bft)
21.10.2009 13:20 7,6 C 7,7 C 7,4 C 11,4 C 11,4 C 3,8 C 76 % 78 % 100 % 1013,3 hPa 0,0 l/m 3,7 km/h (1 Bft) O-NO 67 5 min 0,4 UV-I 3,6 C 11,4 C 4,5 km/h (1 Bft)
21.10.2009 13:25 7,6 C 7,7 C 7,4 C 11,5 C 11,5 C 3,9 C 76 % 78 % 100 % 1013,1 hPa 0,0 l/m 3,7 km/h (1 Bft) NO 45 5 min 0,4 UV-I 3,6 C 11,5 C 3,4 km/h (1 Bft)
21.10.2009 13:30 7,7 C 7,7 C 7,6 C 11,5 C 11,5 C 3,8 C 75 % 79 % 100 % 1013,1 hPa 0,0 l/m 4,0 km/h (1 Bft) O-NO 67 5 min 0,4 UV-I 3,6 C 11,5 C 5,6 km/h (1 Bft)
21.10.2009 13:35 7,9 C 7,7 C 7,7 C 11,3 C 11,3 C 3,4 C 76 % 78 % 89 % 1013,1 hPa 0,0 l/m 4,3 km/h (1 Bft) O-NO 67 5 min 0,4 UV-I 3,9 C 11,3 C 2,6 km/h (1 Bft)
21.10.2009 13:40 8,0 C 7,7 C 7,9 C 11,1 C 11,1 C 3,1 C 74 % 77 % 82 % 1013,1 hPa 0,0 l/m 5,1 km/h (1 Bft) NO 45 0 min 0,4 UV-I 3,7 C 11,1 C 6,6 km/h (2 Bft)
21.10.2009 13:45 8,0 C 7,8 C 8,0 C 10,6 C 10,6 C 2,6 C 75 % 78 % 68 % 1012,4 hPa 0,0 l/m 4,8 km/h (1 Bft) O-NO 67 0 min 0,4 UV-I 3,8 C 10,6 C 5,3 km/h (1 Bft)
21.10.2009 13:50 8,1 C 7,8 C 8,0 C 10,0 C 10,0 C 1,9 C 75 % 77 % 50 % 1012,4 hPa 0,0 l/m 4,2 km/h (1 Bft) O-NO 67 0 min 0,4 UV-I 3,9 C 10,0 C 5,8 km/h (2 Bft)
21.10.2009 13:55 8,2 C 7,8 C 8,0 C 9,9 C 9,9 C 1,7 C 75 % 77 % 45 % 1012,4 hPa 0,0 l/m 4,3 km/h (1 Bft) O-NO 67 0 min 0,4 UV-I 4,0 C 9,9 C 6,9 km/h (2 Bft)
21.10.2009 14:00 8,2 C 7,8 C 8,1 C 9,5 C 9,5 C 1,3 C 75 % 77 % 34 % 1012,4 hPa 0,0 l/m 4,8 km/h (1 Bft) N-NO 22 0 min 0,4 UV-I 4,0 C 9,3 C 7,4 km/h (2 Bft)
21.10.2009 14:10 8,3 C 7,8 C 8,1 C 9,7 C 9,7 C 1,4 C 74 % 77 % 37 % 1012,4 hPa 0,0 l/m 4,0 km/h (1 Bft) O-NO 67 0 min 0,4 UV-I 3,9 C 9,7 C 5,3 km/h (1 Bft)
21.10.2009 14:15 8,4 C 7,8 C 8,3 C 9,4 C 9,4 C 1,0 C 72 % 75 % 26 % 1012,4 hPa 0,0 l/m 5,6 km/h (1 Bft) NO 45 0 min 0,4 UV-I 3,7 C 8,9 C 7,9 km/h (2 Bft)
21.10.2009 14:20 8,4 C 7,8 C 8,3 C 9,1 C 9,1 C 0,7 C 73 % 76 % 18 % 1012,4 hPa 0,0 l/m 6,1 km/h (2 Bft) O-NO 67 0 min 0,3 UV-I 3,8 C 8,4 C 5,1 km/h (1 Bft)
21.10.2009 14:25 8,4 C 7,8 C 8,4 C 9,3 C 9,3 C 0,9 C 74 % 77 % 24 % 1012,4 hPa 0,0 l/m 5,3 km/h (1 Bft) NO 45 0 min 0,3 UV-I 4,0 C 8,9 C 6,8 km/h (2 Bft)
21.10.2009 14:30 8,5 C 7,8 C 8,4 C 9,7 C 9,7 C 1,2 C 74 % 77 % 32 % 1012,4 hPa 0,0 l/m 3,5 km/h (1 Bft) O-NO 67 0 min 0,3 UV-I 4,1 C 9,7 C 3,5 km/h (1 Bft)
21.10.2009 14:35 8,5 C 7,8 C 8,4 C 9,7 C 9,7 C 1,2 C 73 % 76 % 32 % 1012,4 hPa 0,0 l/m 4,0 km/h (1 Bft) N-NO 22 0 min 0,3 UV-I 3,9 C 9,7 C 8,4 km/h (2 Bft)
21.10.2009 14:40 8,8 C 7,9 C 8,7 C 9,6 C 9,6 C 0,8 C 73 % 76 % 21 % 1012,4 hPa 0,0 l/m 5,1 km/h (1 Bft) O-NO 67 0 min 0,3 UV-I 4,2 C 9,3 C 6,6 km/h (2 Bft)
21.10.2009 14:45 8,9 C 7,9 C 8,6 C 9,7 C 9,7 C 0,8 C 73 % 75 % 21 % 1012,0 hPa 0,0 l/m 5,6 km/h (1 Bft) O-NO 67 0 min 0,3 UV-I 4,3 C 9,2 C 7,6 km/h (2 Bft)
21.10.2009 14:50 8,8 C 7,9 C 8,8 C 9,6 C 9,6 C 0,8 C 71 % 73 % 21 % 1012,0 hPa 0,0 l/m 7,4 km/h (2 Bft) O-NO 67 0 min 0,3 UV-I 3,8 C 8,7 C 10,1 km/h (2 Bft)
21.10.2009 14:55 8,9 C 7,9 C 8,8 C 9,8 C 9,4 C 0,9 C 70 % 73 % 24 % 1012,0 hPa 0,0 l/m 8,2 km/h (2 Bft) O-NO 67 0 min 0,3 UV-I 3,7 C 8,3 C 8,7 km/h (2 Bft)
21.10.2009 15:00 8,8 C 7,9 C 8,9 C 9,5 C 9,0 C 0,7 C 71 % 73 % 18 % 1012,0 hPa 0,0 l/m 8,0 km/h (2 Bft) NO 45 0 min 0,2 UV-I 3,8 C 7,8 C 10,6 km/h (2 Bft)
21.10.2009 15:10 8,8 C 7,9 C 8,9 C 9,1 C 9,1 C 0,3 C 73 % 75 % 8 % 1011,6 hPa 0,0 l/m 6,1 km/h (2 Bft) O-NO 67 0 min 0,2 UV-I 4,2 C 8,4 C 5,6 km/h (1 Bft)
21.10.2009 15:15 8,8 C 7,9 C 9,1 C 9,2 C 9,2 C 0,4 C 72 % 73 % 11 % 1011,6 hPa 0,0 l/m 6,0 km/h (2 Bft) NO 45 0 min 0,2 UV-I 4,0 C 8,6 C 8,9 km/h (2 Bft)
21.10.2009 15:20 9,0 C 7,9 C 9,5 C 9,7 C 9,7 C 0,7 C 72 % 73 % 18 % 1011,6 hPa 0,0 l/m 5,1 km/h (1 Bft) O 90 0 min 0,1 UV-I 4,2 C 9,4 C 4,3 km/h (1 Bft)
21.10.2009 15:25 9,1 C 7,9 C 10,1 C 10,6 C 10,6 C 1,5 C 72 % 72 % 39 % 1011,4 hPa 0,0 l/m 4,7 km/h (1 Bft) O-NO 67 0 min 0,1 UV-I 4,3 C 10,6 C 6,6 km/h (2 Bft)
21.10.2009 15:30 9,3 C 8,0 C 10,9 C 11,3 C 11,3 C 2,0 C 71 % 69 % 53 % 1011,4 hPa 0,0 l/m 4,2 km/h (1 Bft) O-NO 67 0 min 0,2 UV-I 4,3 C 11,3 C 4,8 km/h (1 Bft)
21.10.2009 15:35 9,5 C 8,0 C 11,1 C 12,0 C 12,0 C 2,5 C 70 % 68 % 66 % 1011,4 hPa 0,0 l/m 5,0 km/h (1 Bft) O-NO 67 0 min 0,2 UV-I 4,3 C 12,0 C 5,0 km/h (1 Bft)
21.10.2009 15:40 9,6 C 8,0 C 11,4 C 12,7 C 12,7 C 3,1 C 70 % 66 % 82 % 1011,4 hPa 0,0 l/m 5,3 km/h (1 Bft) O-NO 67 0 min 0,1 UV-I 4,4 C 12,7 C 4,2 km/h (1 Bft)
21.10.2009 15:45 9,6 C 8,0 C 11,6 C 12,8 C 12,8 C 3,2 C 70 % 67 % 84 % 1011,1 hPa 0,0 l/m 5,0 km/h (1 Bft) O-NO 67 5 min 0,1 UV-I 4,4 C 12,8 C 6,4 km/h (2 Bft)
21.10.2009 15:50 9,5 C 8,0 C 11,5 C 12,5 C 12,5 C 3,0 C 70 % 66 % 79 % 1011,1 hPa 0,0 l/m 5,0 km/h (1 Bft) NO 45 5 min 0,1 UV-I 4,3 C 12,5 C 7,6 km/h (2 Bft)
21.10.2009 15:55 9,6 C 8,0 C 11,3 C 12,2 C 12,2 C 2,6 C 71 % 67 % 68 % 1011,1 hPa 0,0 l/m 5,6 km/h (1 Bft) O-NO 67 0 min 0,1 UV-I 4,6 C 12,2 C 10,1 km/h (2 Bft)
21.10.2009 16:00 9,3 C 8,0 C 10,9 C 11,4 C 11,4 C 2,1 C 71 % 67 % 55 % 1011,1 hPa 0,0 l/m 6,0 km/h (2 Bft) O-NO 67 0 min 0,0 UV-I 4,3 C 11,4 C 7,9 km/h (2 Bft)
21.10.2009 16:10 9,2 C 8,0 C 10,0 C 10,4 C 10,4 C 1,2 C 70 % 69 % 32 % 1011,1 hPa 0,0 l/m 5,6 km/h (1 Bft) O 90 0 min 0,0 UV-I 4,0 C 10,4 C 8,9 km/h (2 Bft)
21.10.2009 16:15 9,1 C 8,0 C 9,6 C 10,3 C 10,3 C 1,2 C 70 % 69 % 32 % 1011,1 hPa 0,0 l/m 5,5 km/h (1 Bft) O-NO 67 0 min 0,0 UV-I 3,9 C 10,3 C 3,9 km/h (1 Bft)
21.10.2009 16:20 9,0 C 8,0 C 9,4 C 10,4 C 10,4 C 1,4 C 71 % 70 % 37 % 1011,3 hPa 0,0 l/m 5,1 km/h (1 Bft) O-NO 67 0 min 0,0 UV-I 4,0 C 10,4 C 4,3 km/h (1 Bft)
21.10.2009 16:21 9,0 C 8,0 C 9,3 C 10,3 C 10,3 C 1,3 C 71 % 71 % 34 % 1010,7 hPa 0,0 l/m 4,5 km/h (1 Bft) NO 45 0 min 0,0 UV-I 4,0 C 10,3 C 8,4 km/h (2 Bft)
21.10.2009 16:26 8,9 C 8,1 C 9,1 C 9,3 C 9,3 C 0,4 C 71 % 72 % 11 % 1010,7 hPa 0,0 l/m 5,8 km/h (2 Bft) NO 45 0 min 0,0 UV-I 3,9 C 8,7 C 9,0 km/h (2 Bft)
21.10.2009 16:31 8,8 C 8,1 C 8,8 C 8,8 C 8,7 C 0,0 C 71 % 72 % 0 % 1010,7 hPa 0,0 l/m 6,8 km/h (2 Bft) NO 45 0 min 0,0 UV-I 3,8 C 7,8 C 6,3 km/h (2 Bft)
21.10.2009 16:34 8,8 C 8,1 C 8,8 C 8,8 C 8,7 C 0,0 C 71 % 72 % 0 % 1010,7 hPa 0,0 l/m 6,8 km/h (2 Bft) NO 45 0 min 0,0 UV-I 3,8 C 7,8 C 6,3 km/h (2 Bft)
21.10.2009 16:40 8,6 C 8,1 C 8,8 C 8,7 C 8,7 C 0,1 C 72 % 73 % 3 % 1010,7 hPa 0,0 l/m 5,8 km/h (2 Bft) O-NO 67 0 min 0,0 UV-I 3,8 C 8,0 C 5,1 km/h (1 Bft)
21.10.2009 16:45 8,6 C 8,1 C 8,7 C 9,0 C 9,0 C 0,4 C 72 % 73 % 11 % 1010,9 hPa 0,0 l/m 4,7 km/h (1 Bft) O-NO 67 0 min 0,0 UV-I 3,8 C 8,7 C 4,5 km/h (1 Bft)
21.10.2009 16:50 8,6 C 8,1 C 8,5 C 9,2 C 9,2 C 0,6 C 72 % 74 % 16 % 1010,9 hPa 0,0 l/m 4,7 km/h (1 Bft) NO 45 0 min 0,0 UV-I 3,8 C 8,9 C 8,4 km/h (2 Bft)
21.10.2009 16:55 8,7 C 8,1 C 8,5 C 9,1 C 9,1 C 0,4 C 73 % 74 % 11 % 1010,9 hPa 0,0 l/m 5,5 km/h (1 Bft) O-NO 67 0 min 0,0 UV-I 4,1 C 8,6 C 9,2 km/h (2 Bft)
21.10.2009 17:00 8,6 C 8,1 C 8,4 C 9,2 C 9,2 C 0,6 C 73 % 75 % 16 % 1010,9 hPa 0,0 l/m 6,0 km/h (2 Bft) O-NO 67 0 min 0,0 UV-I 4,0 C 8,6 C 6,3 km/h (2 Bft)
21.10.2009 17:10 8,5 C 8,1 C 8,2 C 10,0 C 10,0 C 1,5 C 73 % 75 % 39 % 1010,6 hPa 0,0 l/m 4,5 km/h (1 Bft) NO 45 10 min 0,0 UV-I 3,9 C 10,0 C 5,3 km/h (1 Bft)
21.10.2009 17:15 8,4 C 8,1 C 8,3 C 10,1 C 10,1 C 1,7 C 73 % 76 % 45 % 1010,6 hPa 0,0 l/m 4,0 km/h (1 Bft) O-NO 67 5 min 0,0 UV-I 3,8 C 10,1 C 6,3 km/h (2 Bft)
21.10.2009 17:20 8,5 C 8,1 C 8,1 C 9,6 C 9,6 C 1,1 C 73 % 76 % 29 % 1010,6 hPa 0,0 l/m 4,0 km/h (1 Bft) O-NO 67 5 min 0,0 UV-I 3,9 C 9,6 C 4,5 km/h (1 Bft)
21.10.2009 17:25 8,3 C 8,1 C 8,0 C 9,1 C 9,1 C 0,8 C 74 % 76 % 21 % 1010,7 hPa 0,0 l/m 3,7 km/h (1 Bft) N-NO 22 0 min 0,0 UV-I 3,9 C 9,1 C 3,9 km/h (1 Bft)
21.10.2009 17:30 8,1 C 8,1 C 8,0 C 8,6 C 8,6 C 0,5 C 74 % 76 % 13 % 1010,7 hPa 0,0 l/m 3,5 km/h (1 Bft) NO 45 0 min 0,0 UV-I 3,8 C 8,6 C 4,7 km/h (1 Bft)
21.10.2009 17:35 8,0 C 8,1 C 7,9 C 8,4 C 8,4 C 0,4 C 74 % 77 % 11 % 1010,7 hPa 0,0 l/m 3,7 km/h (1 Bft) NO 45 0 min 0,0 UV-I 3,7 C 8,4 C 6,6 km/h (2 Bft)
21.10.2009 17:40 8,0 C 8,2 C 7,7 C 7,9 C 7,7 C 0,0 C 74 % 77 % 0 % 1010,7 hPa 0,0 l/m 4,3 km/h (1 Bft) O-NO 67 0 min 0,0 UV-I 3,7 C 7,7 C 5,8 km/h (2 Bft)
21.10.2009 17:45 7,9 C 8,1 C 7,7 C 7,7 C 7,2 C 0,0 C 74 % 77 % 0 % 1010,6 hPa 0,0 l/m 5,1 km/h (1 Bft) NO 45 0 min 0,0 UV-I 3,6 C 6,5 C 7,2 km/h (2 Bft)
21.10.2009 17:50 7,7 C 8,1 C 7,5 C 7,4 C 6,7 C 0,0 C 74 % 77 % 0 % 1010,6 hPa 0,0 l/m 6,0 km/h (2 Bft) O-NO 67 0 min 0,0 UV-I 3,4 C 5,7 C 3,1 km/h (1 Bft)
21.10.2009 17:55 7,6 C 8,2 C 7,5 C 7,2 C 6,5 C 0,0 C 74 % 77 % 0 % 1010,6 hPa 0,0 l/m 5,5 km/h (1 Bft) O-NO 67 0 min 0,0 UV-I 3,3 C 5,6 C 6,3 km/h (2 Bft)
21.10.2009 18:00 7,5 C 8,3 C 7,2 C 7,1 C 6,4 C 0,0 C 74 % 77 % 0 % 1010,6 hPa 0,0 l/m 4,7 km/h (1 Bft) NO 45 0 min 0,0 UV-I 3,2 C 5,8 C 5,3 km/h (1 Bft)
21.10.2009 18:10 7,4 C 8,3 C 7,1 C 7,0 C 6,2 C 0,0 C 75 % 78 % 0 % 1010,9 hPa 0,0 l/m 4,3 km/h (1 Bft) O-NO 67 0 min 0,0 UV-I 3,3 C 6,2 C 2,7 km/h (1 Bft)
21.10.2009 18:15 7,2 C 8,3 C 7,0 C 6,8 C 5,9 C 0,0 C 75 % 78 % 0 % 1010,9 hPa 0,0 l/m 4,2 km/h (1 Bft) O-NO 67 0 min 0,0 UV-I 3,1 C 5,9 C 6,8 km/h (2 Bft)
21.10.2009 18:20 7,2 C 8,3 C 6,8 C 6,8 C 6,1 C 0,0 C 76 % 79 % 0 % 1010,9 hPa 0,0 l/m 3,7 km/h (1 Bft) O-NO 67 0 min 0,0 UV-I 3,3 C 6,1 C 4,8 km/h (1 Bft)
21.10.2009 18:25 7,1 C 8,3 C 6,8 C 6,7 C 5,9 C 0,0 C 75 % 79 % 0 % 1011,2 hPa 0,0 l/m 3,5 km/h (1 Bft) NO 45 0 min 0,0 UV-I 3,0 C 5,9 C 5,0 km/h (1 Bft)
21.10.2009 18:30 6,9 C 8,3 C 6,7 C 6,5 C 5,7 C 0,0 C 76 % 79 % 0 % 1011,2 hPa 0,0 l/m 3,7 km/h (1 Bft) O-NO 67 0 min 0,0 UV-I 3,0 C 5,7 C 4,3 km/h (1 Bft)
21.10.2009 18:35 6,8 C 8,3 C 6,5 C 6,3 C 5,2 C 0,0 C 76 % 80 % 0 % 1011,2 hPa 0,0 l/m 4,5 km/h (1 Bft) NO 45 0 min 0,0 UV-I 2,9 C 5,2 C 10,6 km/h (2 Bft)
21.10.2009 18:40 6,7 C 8,3 C 6,4 C 6,1 C 4,8 C 0,0 C 76 % 80 % 0 % 1011,2 hPa 0,0 l/m 5,1 km/h (1 Bft) O-NO 67 0 min 0,0 UV-I 2,8 C 3,8 C 7,2 km/h (2 Bft)
21.10.2009 18:45 6,5 C 8,3 C 6,2 C 5,9 C 4,7 C 0,0 C 77 % 80 % 0 % 1010,9 hPa 0,0 l/m 5,6 km/h (1 Bft) NO 45 0 min 0,0 UV-I 2,8 C 3,5 C 8,2 km/h (2 Bft)
21.10.2009 18:50 6,4 C 8,3 C 6,1 C 5,7 C 4,4 C 0,0 C 77 % 81 % 0 % 1010,9 hPa 0,0 l/m 5,6 km/h (1 Bft) NO 45 0 min 0,0 UV-I 2,7 C 3,2 C 4,3 km/h (1 Bft)
21.10.2009 18:55 6,3 C 8,3 C 6,0 C 5,7 C 4,5 C 0,0 C 77 % 81 % 0 % 1010,9 hPa 0,0 l/m 5,3 km/h (1 Bft) O-NO 67 0 min 0,0 UV-I 2,6 C 3,4 C 4,2 km/h (1 Bft)
21.10.2009 19:00 6,3 C 8,3 C 5,9 C 5,7 C 4,5 C 0,0 C 78 % 80 % 0 % 1010,9 hPa 0,0 l/m 4,7 km/h (1 Bft) NO 45 0 min 0,0 UV-I 2,8 C 3,6 C 4,3 km/h (1 Bft)
21.10.2009 19:10 6,0 C 8,3 C 5,7 C 5,4 C 4,2 C 0,0 C 78 % 81 % 0 % 1011,2 hPa 0,0 l/m 5,1 km/h (1 Bft) O-NO 67 0 min 0,0 UV-I 2,5 C 3,1 C 8,7 km/h (2 Bft)
21.10.2009 19:15 5,9 C 8,3 C 5,7 C 5,2 C 3,9 C 0,0 C 78 % 81 % 0 % 1011,2 hPa 0,0 l/m 5,3 km/h (1 Bft) O-NO 67 0 min 0,0 UV-I 2,4 C 2,7 C 10,6 km/h (2 Bft)
21.10.2009 19:20 5,9 C 8,3 C 5,5 C 5,2 C 3,9 C 0,0 C 78 % 81 % 0 % 1011,2 hPa 0,0 l/m 5,3 km/h (1 Bft) O-NO 67 0 min 0,0 UV-I 2,4 C 2,7 C 3,9 km/h (1 Bft)
21.10.2009 19:25 5,7 C 8,3 C 5,5 C 5,1 C 3,8 C 0,0 C 78 % 81 % 0 % 1011,2 hPa 0,0 l/m 5,1 km/h (1 Bft) NO 45 0 min 0,0 UV-I 2,2 C 2,7 C 8,7 km/h (2 Bft)
21.10.2009 19:30 5,6 C 8,3 C 5,5 C 5,1 C 4,2 C 0,0 C 78 % 81 % 0 % 1011,2 hPa 0,0 l/m 4,0 km/h (1 Bft) O 90 0 min 0,0 UV-I 2,1 C 4,2 C 4,3 km/h (1 Bft)
21.10.2009 19:35 5,7 C 8,3 C 5,5 C 5,2 C 4,2 C 0,0 C 78 % 81 % 0 % 1011,2 hPa 0,0 l/m 3,9 km/h (1 Bft) O-NO 67 0 min 0,0 UV-I 2,2 C 4,2 C 3,9 km/h (1 Bft)
21.10.2009 19:40 5,5 C 8,3 C 5,3 C 5,1 C 4,4 C 0,0 C 79 % 81 % 0 % 1011,2 hPa 0,0 l/m 2,7 km/h (1 Bft) O-NO 67 0 min 0,0 UV-I 2,2 C 4,4 C 1,8 km/h (1 Bft)
21.10.2009 19:45 5,5 C 8,3 C 5,2 C 5,1 C 4,2 C 0,0 C 79 % 82 % 0 % 1010,9 hPa 0,0 l/m 1,6 km/h (1 Bft) N-NO 22 0 min 0,0 UV-I 2,2 C 4,2 C 0,0 km/h (0 Bft)
21.10.2009 19:50 5,3 C 8,3 C 4,9 C 4,8 C 3,8 C 0,0 C 79 % 82 % 0 % 1010,9 hPa 0,0 l/m 1,4 km/h (1 Bft) NO 45 0 min 0,0 UV-I 2,0 C 3,8 C 2,6 km/h (1 Bft)
21.10.2009 19:55 5,2 C 8,3 C 4,8 C 4,7 C 3,7 C 0,0 C 79 % 83 % 0 % 1010,9 hPa 0,0 l/m 1,4 km/h (1 Bft) NO 45 0 min 0,0 UV-I 1,9 C 3,7 C 0,0 km/h (0 Bft)
21.10.2009 20:00 5,2 C 8,3 C 4,7 C 4,7 C 3,6 C 0,0 C 80 % 83 % 0 % 1010,9 hPa 0,0 l/m 2,1 km/h (1 Bft) O-NO 67 0 min 0,0 UV-I 2,0 C 3,6 C 3,1 km/h (1 Bft)
21.10.2009 20:10 5,1 C 8,3 C 4,7 C 4,5 C 3,4 C 0,0 C 81 % 84 % 0 % 1010,9 hPa 0,0 l/m 1,6 km/h (1 Bft) O-NO 67 0 min 0,0 UV-I 2,1 C 3,4 C 0,0 km/h (0 Bft)
21.10.2009 20:15 5,0 C 8,3 C 4,5 C 4,4 C 3,2 C 0,0 C 81 % 84 % 0 % 1010,9 hPa 0,0 l/m 1,4 km/h (1 Bft) O-NO 67 0 min 0,0 UV-I 2,0 C 3,2 C 2,6 km/h (1 Bft)
21.10.2009 20:20 4,9 C 8,3 C 4,7 C 4,3 C 3,1 C 0,0 C 81 % 84 % 0 % 1010,9 hPa 0,0 l/m 1,1 km/h (1 Bft) O-NO 67 0 min 0,0 UV-I 1,9 C 3,1 C 2,7 km/h (1 Bft)
21.10.2009 20:25 4,8 C 8,3 C 4,5 C 4,2 C 3,1 C 0,0 C 81 % 84 % 0 % 1010,9 hPa 0,0 l/m 1,0 km/h (0 Bft) NO 45 0 min 0,0 UV-I 1,8 C 3,1 C 0,0 km/h (0 Bft)
21.10.2009 20:30 4,7 C 8,3 C 4,3 C 4,1 C 2,9 C 0,0 C 81 % 84 % 0 % 1010,9 hPa 0,0 l/m 1,4 km/h (1 Bft) O-NO 67 0 min 0,0 UV-I 1,7 C 2,9 C 3,9 km/h (1 Bft)
21.10.2009 20:35 4,7 C 8,3 C 4,3 C 4,1 C 2,9 C 0,0 C 82 % 85 % 0 % 1010,9 hPa 0,0 l/m 2,4 km/h (1 Bft) O-NO 67 0 min 0,0 UV-I 1,9 C 2,9 C 3,5 km/h (1 Bft)
21.10.2009 20:40 4,6 C 8,3 C 4,3 C 4,0 C 2,7 C 0,0 C 82 % 86 % 0 % 1010,9 hPa 0,0 l/m 3,4 km/h (1 Bft) NO 45 0 min 0,0 UV-I 1,8 C 2,7 C 3,2 km/h (1 Bft)
21.10.2009 20:45 4,7 C 8,3 C 4,3 C 4,0 C 2,6 C 0,0 C 82 % 86 % 0 % 1010,9 hPa 0,0 l/m 3,7 km/h (1 Bft) O-NO 67 0 min 0,0 UV-I 1,9 C 2,6 C 6,4 km/h (2 Bft)
21.10.2009 20:50 4,5 C 8,3 C 4,2 C 3,6 C 1,9 C 0,0 C 83 % 86 % 0 % 1010,9 hPa 0,0 l/m 5,5 km/h (1 Bft) O-NO 67 0 min 0,0 UV-I 1,9 C 0,4 C 8,4 km/h (2 Bft)
21.10.2009 20:55 4,4 C 8,3 C 4,1 C 3,6 C 1,9 C 0,0 C 83 % 85 % 0 % 1010,9 hPa 0,0 l/m 6,0 km/h (2 Bft) NO 45 0 min 0,0 UV-I 1,8 C 0,2 C 5,8 km/h (2 Bft)
21.10.2009 21:00 4,4 C 8,3 C 4,1 C 3,7 C 2,2 C 0,0 C 83 % 86 % 0 % 1010,9 hPa 0,0 l/m 4,8 km/h (1 Bft) NO 45 0 min 0,0 UV-I 1,8 C 1,0 C 4,3 km/h (1 Bft)
21.10.2009 21:06 4,4 C 8,3 C 4,2 C 3,8 C 2,7 C 0,0 C 83 % 86 % 0 % 1010,5 hPa 0,0 l/m 3,9 km/h (1 Bft) NO 45 0 min 0,0 UV-I 1,8 C 2,7 C 2,3 km/h (1 Bft)
21.10.2009 21:07 4,4 C 8,3 C 4,1 C 4,0 C 3,1 C 0,0 C 83 % 85 % 0 % 1010,5 hPa 0,0 l/m 2,3 km/h (1 Bft) NO 45 0 min 0,0 UV-I 1,8 C 3,1 C 3,2 km/h (1 Bft)
21.10.2009 21:10 4,4 C 8,3 C 4,1 C 4,0 C 3,1 C 0,0 C 83 % 85 % 0 % 1010,5 hPa 0,0 l/m 2,3 km/h (1 Bft) NO 45 0 min 0,0 UV-I 1,8 C 3,1 C 3,2 km/h (1 Bft)
21.10.2009 21:15 4,4 C 8,3 C 4,0 C 3,9 C 2,8 C 0,0 C 83 % 86 % 0 % 1010,5 hPa 0,0 l/m 0,8 km/h (0 Bft) N-NO 22 0 min 0,0 UV-I 1,8 C 2,8 C 0,0 km/h (0 Bft)
21.10.2009 21:20 4,3 C 8,3 C 3,9 C 3,6 C 2,3 C 0,0 C 83 % 86 % 0 % 1010,5 hPa 0,0 l/m 0,2 km/h (0 Bft) O-NO 67 0 min 0,0 UV-I 1,7 C 2,3 C 1,8 km/h (1 Bft)
21.10.2009 21:25 4,3 C 8,3 C 3,9 C 3,6 C 2,1 C 0,0 C 83 % 86 % 0 % 1011,1 hPa 0,0 l/m 0,0 km/h (0 Bft) O-SO 112 0 min 0,0 UV-I 1,7 C 2,1 C 0,0 km/h (0 Bft)
21.10.2009 21:30 4,1 C 8,3 C 3,7 C 3,4 C 1,9 C 0,0 C 83 % 86 % 0 % 1011,1 hPa 0,0 l/m 0,2 km/h (0 Bft) O-NO 67 0 min 0,0 UV-I 1,5 C 1,9 C 1,6 km/h (1 Bft)
21.10.2009 21:35 4,1 C 8,3 C 3,6 C 3,3 C 1,8 C 0,0 C 83 % 86 % 0 % 1011,1 hPa 0,0 l/m 0,2 km/h (0 Bft) O-NO 67 0 min 0,0 UV-I 1,5 C 1,8 C 0,0 km/h (0 Bft)
21.10.2009 21:40 4,1 C 8,3 C 3,6 C 3,3 C 1,8 C 0,0 C 83 % 87 % 0 % 1011,1 hPa 0,0 l/m 0,3 km/h (0 Bft) O-NO 67 0 min 0,0 UV-I 1,5 C 1,8 C 1,6 km/h (1 Bft)
21.10.2009 21:45 4,0 C 8,3 C 3,6 C 3,3 C 1,9 C 0,0 C 83 % 87 % 0 % 1010,2 hPa 0,0 l/m 0,8 km/h (0 Bft) NO 45 0 min 0,0 UV-I 1,4 C 1,9 C 1,6 km/h (1 Bft)
21.10.2009 21:50 4,1 C 8,3 C 3,7 C 3,4 C 2,1 C 0,0 C 84 % 87 % 0 % 1010,2 hPa 0,0 l/m 1,8 km/h (1 Bft) O-NO 67 0 min 0,0 UV-I 1,6 C 2,1 C 2,9 km/h (1 Bft)
21.10.2009 21:55 4,0 C 8,3 C 3,7 C 3,4 C 2,2 C 0,0 C 84 % 87 % 0 % 1010,2 hPa 0,0 l/m 2,4 km/h (1 Bft) O-NO 67 0 min 0,0 UV-I 1,5 C 2,2 C 3,9 km/h (1 Bft)
21.10.2009 22:00 4,1 C 8,3 C 3,8 C 3,5 C 2,4 C 0,0 C 84 % 87 % 0 % 1010,2 hPa 0,0 l/m 2,3 km/h (1 Bft) O-NO 67 0 min 0,0 UV-I 1,6 C 2,4 C 2,4 km/h (1 Bft)
21.10.2009 22:06 4,0 C 8,2 C 3,7 C 3,4 C 2,2 C 0,0 C 84 % 87 % 0 % 1009,9 hPa 0,0 l/m 3,4 km/h (1 Bft) O-NO 67 0 min 0,0 UV-I 1,5 C 2,2 C 7,1 km/h (2 Bft)
21.10.2009 22:07 4,0 C 8,2 C 3,7 C 3,4 C 2,2 C 0,0 C 84 % 87 % 0 % 1009,9 hPa 0,0 l/m 3,4 km/h (1 Bft) O-NO 67 0 min 0,0 UV-I 1,5 C 2,2 C 7,1 km/h (2 Bft)
21.10.2009 22:11 3,9 C 8,3 C 3,7 C 3,3 C 2,2 C 0,0 C 84 % 87 % 0 % 1009,9 hPa 0,0 l/m 3,4 km/h (1 Bft) O-NO 67 0 min 0,0 UV-I 1,4 C 2,2 C 2,9 km/h (1 Bft)
21.10.2009 22:16 3,9 C 8,3 C 3,8 C 3,4 C 2,3 C 0,0 C 84 % 87 % 0 % 1009,9 hPa 0,0 l/m 3,2 km/h (1 Bft) O-NO 67 0 min 0,0 UV-I 1,4 C 2,3 C 4,8 km/h (1 Bft)
21.10.2009 22:20 3,9 C 8,3 C 3,8 C 3,4 C 2,3 C 0,0 C 84 % 87 % 0 % 1009,9 hPa 0,0 l/m 3,2 km/h (1 Bft) O-NO 67 0 min 0,0 UV-I 1,4 C 2,3 C 4,8 km/h (1 Bft)
21.10.2009 22:25 3,9 C 8,2 C 3,7 C 3,3 C 2,0 C 0,0 C 84 % 87 % 0 % 1009,6 hPa 0,0 l/m 3,7 km/h (1 Bft) O-NO 67 0 min 0,0 UV-I 1,4 C 2,0 C 4,5 km/h (1 Bft)
21.10.2009 22:30 3,7 C 8,2 C 3,6 C 3,0 C 1,5 C 0,0 C 85 % 87 % 0 % 1009,6 hPa 0,0 l/m 4,7 km/h (1 Bft) O-NO 67 0 min 0,0 UV-I 1,4 C 0,2 C 5,1 km/h (1 Bft)
21.10.2009 22:35 3,7 C 8,2 C 3,7 C 2,9 C 1,3 C 0,0 C 85 % 87 % 0 % 1009,6 hPa 0,0 l/m 5,1 km/h (1 Bft) O-NO 67 0 min 0,0 UV-I 1,4 C -0,2 C 6,8 km/h (2 Bft)
21.10.2009 22:40 3,6 C 8,2 C 3,6 C 2,8 C 1,1 C 0,0 C 85 % 87 % 0 % 1009,6 hPa 0,0 l/m 6,1 km/h (2 Bft) NO 45 0 min 0,0 UV-I 1,3 C -0,8 C 9,5 km/h (2 Bft)
21.10.2009 22:45 3,6 C 8,2 C 3,6 C 2,7 C 0,8 C 0,0 C 85 % 87 % 0 % 1009,4 hPa 0,0 l/m 6,9 km/h (2 Bft) O-NO 67 0 min 0,0 UV-I 1,3 C -1,4 C 10,1 km/h (2 Bft)
21.10.2009 22:50 3,7 C 8,2 C 3,5 C 2,7 C 0,8 C 0,0 C 85 % 87 % 0 % 1009,4 hPa 0,0 l/m 6,9 km/h (2 Bft) O-NO 67 0 min 0,0 UV-I 1,4 C -1,4 C 6,1 km/h (2 Bft)
21.10.2009 22:55 3,6 C 8,2 C 3,5 C 2,7 C 0,9 C 0,0 C 85 % 87 % 0 % 1009,4 hPa 0,0 l/m 6,6 km/h (2 Bft) W-SW 247 0 min 0,0 UV-I 1,3 C -1,2 C 7,7 km/h (2 Bft)
21.10.2009 23:00 3,5 C 8,3 C 3,5 C 2,7 C 1,0 C 0,0 C 85 % 87 % 0 % 1009,4 hPa 0,0 l/m 6,0 km/h (2 Bft) N-NO 22 0 min 0,0 UV-I 1,2 C -0,9 C 5,1 km/h (1 Bft)
21.10.2009 23:06 3,5 C 8,2 C 3,5 C 2,7 C 1,1 C 0,0 C 85 % 87 % 0 % 1009,1 hPa 0,0 l/m 5,6 km/h (1 Bft) O-NO 67 0 min 0,0 UV-I 1,2 C -0,6 C 4,7 km/h (1 Bft)
21.10.2009 23:07 3,5 C 8,2 C 3,5 C 2,7 C 1,1 C 0,0 C 85 % 87 % 0 % 1009,1 hPa 0,0 l/m 5,6 km/h (1 Bft) O-NO 67 0 min 0,0 UV-I 1,2 C -0,6 C 4,7 km/h (1 Bft)
21.10.2009 23:10 3,5 C 8,2 C 3,5 C 2,7 C 1,1 C 0,0 C 85 % 87 % 0 % 1009,1 hPa 0,0 l/m 5,6 km/h (1 Bft) O-NO 67 0 min 0,0 UV-I 1,2 C -0,6 C 4,7 km/h (1 Bft)
21.10.2009 23:15 3,5 C 8,2 C 3,5 C 2,7 C 1,2 C 0,0 C 85 % 87 % 0 % 1009,1 hPa 0,0 l/m 5,1 km/h (1 Bft) O-NO 67 0 min 0,0 UV-I 1,2 C -0,3 C 5,1 km/h (1 Bft)
21.10.2009 23:20 3,5 C 8,3 C 3,3 C 3,0 C 2,1 C 0,0 C 85 % 87 % 0 % 1009,1 hPa 0,0 l/m 2,6 km/h (1 Bft) NO 45 0 min 0,0 UV-I 1,2 C 2,1 C 0,0 km/h (0 Bft)
21.10.2009 23:25 3,5 C 8,4 C 3,2 C 2,9 C 1,8 C 0,0 C 85 % 87 % 0 % 1009,4 hPa 0,0 l/m 1,1 km/h (1 Bft) SW 225 0 min 0,0 UV-I 1,2 C 1,8 C 0,0 km/h (0 Bft)
21.10.2009 23:30 3,3 C 8,4 C 3,1 C 2,6 C 1,3 C 0,0 C 85 % 87 % 0 % 1009,4 hPa 0,0 l/m 0,2 km/h (0 Bft) NO 45 0 min 0,0 UV-I 1,0 C 1,3 C 1,8 km/h (1 Bft)
21.10.2009 23:35 3,2 C 8,4 C 2,9 C 2,5 C 1,2 C 0,0 C 86 % 88 % 0 % 1009,4 hPa 0,0 l/m 1,1 km/h (1 Bft) O-NO 67 0 min 0,0 UV-I 1,1 C 1,2 C 3,5 km/h (1 Bft)
21.10.2009 23:40 3,2 C 8,4 C 3,1 C 2,5 C 1,1 C 0,0 C 86 % 88 % 0 % 1009,4 hPa 0,0 l/m 3,2 km/h (1 Bft) O-NO 67 0 min 0,0 UV-I 1,1 C 1,1 C 4,5 km/h (1 Bft)
21.10.2009 23:45 3,2 C 8,3 C 3,1 C 2,4 C 0,7 C 0,0 C 86 % 88 % 0 % 1008,9 hPa 0,0 l/m 4,5 km/h (1 Bft) NO 45 0 min 0,0 UV-I 1,1 C 0,7 C 7,6 km/h (2 Bft)
21.10.2009 23:50 3,2 C 8,3 C 3,2 C 2,5 C 1,0 C 0,0 C 86 % 88 % 0 % 1008,9 hPa 0,0 l/m 4,3 km/h (1 Bft) O 90 0 min 0,0 UV-I 1,1 C 1,0 C 3,5 km/h (1 Bft)
21.10.2009 23:55 3,3 C 8,3 C 3,2 C 2,7 C 1,5 C 0,0 C 85 % 88 % 0 % 1008,9 hPa 0,0 l/m 3,2 km/h (1 Bft) O-NO 67 0 min 0,0 UV-I 1,0 C 1,5 C 3,1 km/h (1 Bft)
_ Min-Zeit 08:30 11:25 08:25 08:10 07:50 00:00 14:55 15:40 00:00 23:45 - 00:00 - - - 00:00 08:30 22:45 00:00
Minimum _ 1,9 C 7,6 C 1,2 C 0,9 C -1,3 C 0,0 C 70 % 66 % 0 % 1008,9 hPa - 0,0 km/h (0 Bft) - - - 0,0 UV-I -0,0 C -1,4 C 0,0 km/h (0 Bft)
_ Max-Zeit 15:40 05:20 15:45 15:45 15:45 13:00 10:10 09:45 13:00 00:25 00:00 14:55 - - 13:10 12:50 15:55 15:45 11:40
Maximum _ 9,6 C 8,5 C 11,6 C 12,8 C 12,8 C 4,1 C 90 % 94 % 100 % 1014,9 hPa 0,0 l/m 8,2 km/h
O-NO (2 Bft)
- - 10 min 0,5 UV-I 4,6 C 12,8 C 17,7 km/h
NO (3 Bft)
Durchschnitt _ 5,3 C 8,1 C 5,1 C 5,3 C 4,5 C 0,4 C 82 % 85 % 10 % 1012,5 hPa #0,0 l/m 2,7 km/h (1 Bft) O-NO - #1:15 h 0,3 UV-I 2,4 C 4,2 C 3,5 km/h (1 Bft)
2013 www.wetterstation-wechselburg.de